Miscellaneous Local Product
Issued by NWS North Platte, NE

Home | Current Version | Previous Version | Text Only | Print | Product List | Glossary On
Versions: 1 2 3 4 5 6 7 8 9 10 11 12 13 14 15 16 17 18 19 20 21 22 23 24 25 26 27 28 29 30 31 32 33 34 35 36 37 38 39 40 41 42 43 44 45 46 47 48 49 50
000
AXUS43 KLBF 240210
MISLBF


WESTERN AND NORTH CENTRAL NEBRASKA HOURLY WEATHER ROUNDUP
NATIONAL WEATHER SERVICE NORTH PLATTE NE
800 PM CST MON JAN 23 2017

NOTE: "FAIR" INDICATES FEW OR NO CLOUDS BELOW 12,000 FEET WITH NO
SIGNIFICANT WEATHER AND/OR OBSTRUCTIONS TO VISIBILITY.

NOTE: STATIONS NOT REPORTING VARIABLES SUCH AS SKY/WEATHER OR
PRESSURE ARE PROVIDED BY RAWS AND APRS NETWORKS AND ARE NOT UNDER
NATIONAL WEATHER SERVICE QUALITY CONTROL.

...OBSERVATIONS IN AND NEAR THE EASTERN PANHANDLE OF NEBRASKA...

CITY           SKY/WX    TMP DP  RH WIND       PRES   REMARKS
PINE RIDGE     CLOUDY    27  27 100 N12       29.66R FOG     WCI  17
CHADRON        CLOUDY    26  24  92 NE13      29.68R FOG     WCI  15
ALLIANCE       CLOUDY    31  25  78 E3        29.58R
SIDNEY         CLOUDY    32  26  78 E3        29.57S
CRESCENT LAKE    N/A     36  27  71 CALM        N/A
$$

...OBSERVATIONS IN NORTHERN NEBRASKA AND FAR SOUTHERN SOUTH DAKOTA...

CITY           SKY/WX    TMP DP  RH WIND       PRES   REMARKS
WINNER         CLOUDY    32  28  85 E10       29.71R WCI  24
VALENTINE      MOCLDY    32  27  81 E9        29.66R WCI  24
THEDFORD       CLEAR     32  28  86 SE3       29.63R
AINSWORTH      CLEAR     29  28  99 E9        29.66S WCI  20
O`NEILL        CLOUDY    33  32  94 SE9G17    29.74R WCI  26
ORD            CLOUDY    32  30  92 E9        29.71R FOG     WCI  24
BROKEN BOW     FOG       33  32  96 E13       29.66R VSB 3/4 WCI  24
VALENTINE NWR    N/A     31  28  86 E6          N/A  WCI  25
BUTTE            N/A     30  28  94 E16         N/A  WCI  19
HALSEY           N/A     36  29  76 SE6         N/A  WCI  31
CHAMBERS         N/A     33  30  90 E8          N/A  WCI  26
EWING            N/A     32  30  92 E3          N/A
$$

...OBSERVATIONS IN SOUTHWEST NEBRASKA AND FAR NORTHEAST COLORADO...

CITY           SKY/WX    TMP DP  RH WIND       PRES   REMARKS
HOLYOKE        FAIR      37  32  81 N7        29.57R WCI  32
IMPERIAL       CLEAR     35  27  72 E9        29.56F WCI  28
OGALLALA       CLOUDY    36  29  78 CALM      29.59R
NORTH PLATTE   MOCLDY    35  29  78 E7        29.60S WCI  29
MCCOOK         MOCLDY    38  31  76 E12       29.57F WCI  30
LEXINGTON      CLEAR     35  32  91 SE10      29.63S WCI  27
STAPLETON        N/A     34  29  83 CALM        N/A
GOTHENBURG       N/A     34  29  83 E6          N/A  WCI  29
CALLAWAY         N/A     33  30  90 E6          N/A  WCI  27
$$

...OBSERVATIONS IN CENTRAL LINCOLN COUNTY AREA...

CITY           SKY/WX    TMP DP  RH WIND       PRES   REMARKS
N.P. AIRPORT   MOCLDY    35  29  78 E7        29.60S WCI  29
N.P. DOWNTOWN    N/A     38  31  75 CALM        N/A
N.P. SOUTHEAST   N/A     38  31  75 CALM        N/A
N.P. HILLCREST   N/A     40  32  74 E8          N/A  WCI  34
$$

...SOME OBSERVATIONS FROM AROUND THE REGION...

CITY           SKY/WX    TMP DP  RH WIND       PRES   REMARKS
LARAMIE        CLOUDY    29  23  78 SE8       29.48S WCI  21
CHEYENNE       LGT SNOW  32  30  92 E9        29.54S VSB 1   WCI  24
DENVER         CLOUDY    34  27  75 NE6       29.49F WCI  29
AKRON          CLOUDY    35  25  66 E9        29.53S WCI  28
SCOTTSBLUFF    CLOUDY    37  28  70 N8        29.57S WCI  31
RAPID CITY     CLOUDY    23  21  92 N14       29.71R FOG     WCI  11
BISMARCK       CLOUDY    31  24  75 N6        29.82R WCI  25
PIERRE         CLOUDY    29  26  89 E9        29.74R WCI  20
SIOUX FALLS    CLOUDY    31  30  96 SE6       29.82R WCI  25
OMAHA          CLOUDY    33  27  78 SE9       29.84R WCI  25
GRAND ISLAND   CLOUDY    32  32 100 SE14      29.71F FOG     WCI  22
KANSAS CITY    CLEAR     33  28  81 SE8       29.83S WCI  26
WICHITA        CLEAR     45  32  60 SE12      29.69F
OKLAHOMA CITY  CLEAR     50  32  50 SE12      29.71F
DALLAS         CLEAR     57  39  51 S9        29.76F
AMARILLO       CLEAR     52  33  48 S10       29.68S
DODGE CITY     CLEAR     44  34  67 SE13      29.58F
HAYS           CLEAR     37  32  82 E9        29.62S WCI  30
GOODLAND       CLEAR     36  29  75 E9        29.52F WCI  29
$$




USA.gov is the U.S. government's official web portal to all federal, state and local government web resources and services.